Location: Nied?wied?
(53.3665°N, 14.8184°E)
Time: 23:30:42
(UTC+00:00)

Cosmos 2322 Rocket - Pass Details

Date: 03 March 2021
Orbit: 832 x 852 km, 71.0° (Epoch: 12 April)

Event Time Altitude Azimuth Distance (km) Brightness Sun altitude
Rises 17:25:29 0° 187° (S) 3,365 5.4 -7.2°
Reaches altitude 10° 17:28:00 10° 181° (S) 2,436 4.6 -7.5°
Maximum altitude 17:33:15 44° 111° (ESE) 1,146 2.5 -8.3°
Drops below altitude 10° 17:38:33 10° 41° (NE) 2,458 4.3 -9.1°
Sets 17:41:06 0° 35° (NE) 3,400 5.0 -9.5°
